Location: Barcelona
(41.3830°N, 2.1830°E)
Time: 22:53:03
(UTC+02:00)

ISS - Pass Details

Date: 17 July 2017
Orbit: 400 x 408 km, 51.6° (Epoch: 24 July)

Event Time Altitude Azimuth Distance (km) Brightness Sun altitude
Exits shadow 03:52:04 10° 308° (NW) 1,459 -0.9 -22.0°
Reaches altitude 10° 03:52:06 10° 309° (NW) 1,454 -0.9 -22.0°
Maximum altitude 03:54:11 16° 349° (N) 1,157 -0.9 -21.8°
Drops below altitude 10° 03:56:17 10° 29° (NNE) 1,457 0.2 -21.6°
Sets 03:58:58 0° 52° (NE) 2,320 1.2 -21.4°
